Time,TemperatureF,DewpointF,PressureIn,WindDirection,WindDirectionDegrees,WindSpeedMPH,WindSpeedGustMPH,Humidity,HourlyPrecipIn,Conditions,Clouds,dailyrainin,SoftwareType,DateUTC
2013-11-25 00:01:00,15.4,10.9,30.55,SE,146,0.0,0.0,82,0.00,,,0.00,Wunderground v.1.15,2013-11-25 05:01:00,
2013-11-25 00:02:00,15.4,10.6,30.55,SE,146,0.0,0.0,81,0.00,,,0.00,Wunderground v.1.15,2013-11-25 05:02:00,
2013-11-25 00:03:00,15.4,10.6,30.55,SE,146,0.0,0.0,81,0.00,,,0.00,Wunderground v.1.15,2013-11-25 05:03:00,
2013-11-25 00:05:00,15.4,10.9,30.55,SE,146,0.0,0.0,82,0.00,,,0.00,Wunderground v.1.15,2013-11-25 05:05:00,
2013-11-25 00:09:00,15.4,10.9,30.55,SE,146,0.0,0.0,82,0.00,,,0.00,Wunderground v.1.15,2013-11-25 05:09:00,
2013-11-25 00:15:00,15.3,10.8,30.55,SE,146,0.0,0.0,82,0.00,,,0.00,Wunderground v.1.15,2013-11-25 05:15:00,
2013-11-25 00:17:00,15.3,10.8,30.55,SE,146,0.0,0.0,82,0.00,,,0.00,Wunderground v.1.15,2013-11-25 05:17:00,
2013-11-25 00:22:00,15.2,10.7,30.55,SE,146,0.0,0.0,82,0.00,,,0.00,Wunderground v.1.15,2013-11-25 05:22:00,
2013-11-25 00:27:00,15.2,10.7,30.55,SE,146,0.0,0.0,82,0.00,,,0.00,Wunderground v.1.15,2013-11-25 05:27:00,
2013-11-25 00:32:00,15.2,10.7,30.55,SE,146,0.0,0.0,82,0.00,,,0.00,Wunderground v.1.15,2013-11-25 05:32:00,
2013-11-25 00:37:00,15.2,11.0,30.56,SE,146,0.0,0.0,83,0.00,,,0.00,Wunderground v.1.15,2013-11-25 05:37:00,
2013-11-25 00:42:00,15.1,10.6,30.56,SE,146,0.0,0.0,82,0.00,,,0.00,Wunderground v.1.15,2013-11-25 05:42:00,
2013-11-25 00:48:00,15.1,10.6,30.55,SE,146,0.0,0.0,82,0.00,,,0.00,Wunderground v.1.15,2013-11-25 05:48:00,
2013-11-25 00:53:00,15.1,10.6,30.55,SE,146,0.0,0.0,82,0.00,,,0.00,Wunderground v.1.15,2013-11-25 05:53:00,
2013-11-25 00:58:00,15.2,11.0,30.56,SE,146,0.0,0.0,83,0.00,,,0.00,Wunderground v.1.15,2013-11-25 05:58:00,
2013-11-25 01:03:00,15.3,11.1,30.55,SE,146,0.0,0.0,83,0.00,,,0.00,Wunderground v.1.15,2013-11-25 06:03:00,
2013-11-25 01:08:00,15.3,11.1,30.55,SE,146,0.0,0.0,83,0.00,,,0.00,Wunderground v.1.15,2013-11-25 06:08:00,
2013-11-25 01:14:00,15.3,10.8,30.55,SE,146,0.0,0.0,82,0.00,,,0.00,Wunderground v.1.15,2013-11-25 06:14:00,
2013-11-25 01:19:00,15.4,10.9,30.55,SE,146,0.0,0.0,82,0.00,,,0.00,Wunderground v.1.15,2013-11-25 06:19:00,
2013-11-25 01:24:00,15.5,10.7,30.55,SE,146,0.0,0.0,81,0.00,,,0.00,Wunderground v.1.15,2013-11-25 06:24:00,
2013-11-25 01:29:00,15.7,10.6,30.55,SE,146,0.0,0.0,80,0.00,,,0.00,Wunderground v.1.15,2013-11-25 06:29:00,
2013-11-25 01:35:00,15.7,10.6,30.56,SE,146,0.0,0.0,80,0.00,,,0.00,Wunderground v.1.15,2013-11-25 06:35:00,
2013-11-25 01:40:00,15.8,10.7,30.56,SE,146,0.0,0.0,80,0.00,,,0.00,Wunderground v.1.15,2013-11-25 06:40:00,
2013-11-25 01:45:00,15.8,10.7,30.56,SE,146,0.0,0.0,80,0.00,,,0.00,Wunderground v.1.15,2013-11-25 06:45:00,
2013-11-25 01:50:00,15.8,11.0,30.56,SE,146,0.0,0.0,81,0.00,,,0.00,Wunderground v.1.15,2013-11-25 06:50:00,
2013-11-25 01:55:00,15.8,11.0,30.56,SE,146,0.0,0.0,81,0.00,,,0.00,Wunderground v.1.15,2013-11-25 06:55:00,
2013-11-25 02:00:00,15.7,10.6,30.56,SE,146,0.0,0.0,80,0.00,,,0.00,Wunderground v.1.15,2013-11-25 07:00:00,
2013-11-25 02:06:00,15.7,10.9,30.56,SE,146,0.0,0.0,81,0.00,,,0.00,Wunderground v.1.15,2013-11-25 07:06:00,
2013-11-25 02:11:00,15.6,10.8,30.56,SE,146,0.0,0.0,81,0.00,,,0.00,Wunderground v.1.15,2013-11-25 07:11:00,
2013-11-25 02:16:00,15.5,10.7,30.56,SE,146,0.0,0.0,81,0.00,,,0.00,Wunderground v.1.15,2013-11-25 07:16:00,
2013-11-25 02:22:00,15.4,10.6,30.56,SE,146,0.0,0.0,81,0.00,,,0.00,Wunderground v.1.15,2013-11-25 07:22:00,
2013-11-25 02:27:00,15.3,10.5,30.56,SE,146,0.0,0.0,81,0.00,,,0.00,Wunderground v.1.15,2013-11-25 07:27:00,
2013-11-25 02:32:00,15.3,10.8,30.56,SE,146,0.0,0.0,82,0.00,,,0.00,Wunderground v.1.15,2013-11-25 07:32:00,
2013-11-25 02:37:00,15.2,10.7,30.57,SE,146,0.0,0.0,82,0.00,,,0.00,Wunderground v.1.15,2013-11-25 07:37:00,
2013-11-25 02:42:00,15.2,10.7,30.56,SE,146,0.0,0.0,82,0.00,,,0.00,Wunderground v.1.15,2013-11-25 07:42:00,
2013-11-25 02:48:00,15.2,10.7,30.57,SE,146,0.0,0.0,82,0.00,,,0.00,Wunderground v.1.15,2013-11-25 07:48:00,
2013-11-25 02:53:00,15.2,10.7,30.57,SE,146,0.0,0.0,82,0.00,,,0.00,Wunderground v.1.15,2013-11-25 07:53:00,
2013-11-25 02:58:00,15.1,10.6,30.57,SE,146,0.0,0.0,82,0.00,,,0.00,Wunderground v.1.15,2013-11-25 07:58:00,
2013-11-25 03:03:00,15.1,10.6,30.56,SE,146,0.0,0.0,82,0.00,,,0.00,Wunderground v.1.15,2013-11-25 08:03:00,
2013-11-25 03:09:00,15.0,10.2,30.57,SE,146,0.0,0.0,81,0.00,,,0.00,Wunderground v.1.15,2013-11-25 08:09:00,
2013-11-25 03:14:00,15.0,10.5,30.56,SE,146,0.0,0.0,82,0.00,,,0.00,Wunderground v.1.15,2013-11-25 08:14:00,
2013-11-25 03:19:00,15.0,10.5,30.56,SE,146,0.0,0.0,82,0.00,,,0.00,Wunderground v.1.15,2013-11-25 08:19:00,
2013-11-25 03:24:00,15.0,10.5,30.56,SE,146,0.0,0.0,82,0.00,,,0.00,Wunderground v.1.15,2013-11-25 08:24:00,
2013-11-25 03:29:00,14.9,10.7,30.56,SE,146,0.0,0.0,83,0.00,,,0.00,Wunderground v.1.15,2013-11-25 08:29:00,
2013-11-25 03:35:00,14.9,10.4,30.57,SE,146,0.0,0.0,82,0.00,,,0.00,Wunderground v.1.15,2013-11-25 08:35:00,
2013-11-25 03:40:00,14.9,10.4,30.57,SE,146,0.0,0.0,82,0.00,,,0.00,Wunderground v.1.15,2013-11-25 08:40:00,
2013-11-25 03:45:00,14.9,10.7,30.57,SE,146,0.0,0.0,83,0.00,,,0.00,Wunderground v.1.15,2013-11-25 08:45:00,
2013-11-25 03:50:00,14.8,10.6,30.57,SE,146,0.0,0.0,83,0.00,,,0.00,Wunderground v.1.15,2013-11-25 08:50:00,
2013-11-25 03:55:00,14.8,10.6,30.57,SE,146,0.0,0.0,83,0.00,,,0.00,Wunderground v.1.15,2013-11-25 08:55:00,
2013-11-25 04:01:00,14.7,10.5,30.57,SE,146,0.0,0.0,83,0.00,,,0.00,Wunderground v.1.15,2013-11-25 09:01:00,
2013-11-25 04:07:00,14.6,10.1,30.57,SE,146,0.0,0.0,82,0.00,,,0.00,Wunderground v.1.15,2013-11-25 09:07:00,
2013-11-25 04:12:00,14.6,10.4,30.57,SE,146,0.0,0.0,83,0.00,,,0.00,Wunderground v.1.15,2013-11-25 09:12:00,
2013-11-25 04:17:00,14.6,10.4,30.57,SE,146,0.0,0.0,83,0.00,,,0.00,Wunderground v.1.15,2013-11-25 09:17:00,
2013-11-25 04:22:00,14.6,10.4,30.57,SE,146,0.0,0.0,83,0.00,,,0.00,Wunderground v.1.15,2013-11-25 09:22:00,
2013-11-25 04:27:00,14.7,10.5,30.57,SE,146,0.0,0.0,83,0.00,,,0.00,Wunderground v.1.15,2013-11-25 09:27:00,
2013-11-25 04:32:00,14.7,10.5,30.57,SE,146,0.0,0.0,83,0.00,,,0.00,Wunderground v.1.15,2013-11-25 09:32:00,
2013-11-25 04:38:00,14.7,10.5,30.57,SE,146,0.0,0.0,83,0.00,,,0.00,Wunderground v.1.15,2013-11-25 09:38:00,
2013-11-25 04:43:00,14.6,10.4,30.57,SE,146,0.0,0.0,83,0.00,,,0.00,Wunderground v.1.15,2013-11-25 09:43:00,
2013-11-25 04:48:00,14.6,10.6,30.56,SE,146,0.0,0.0,84,0.00,,,0.00,Wunderground v.1.15,2013-11-25 09:48:00,
2013-11-25 04:53:00,14.6,10.6,30.56,SE,146,0.0,0.0,84,0.00,,,0.00,Wunderground v.1.15,2013-11-25 09:53:00,
2013-11-25 04:58:00,14.6,10.6,30.56,SE,146,0.0,0.0,84,0.00,,,0.00,Wunderground v.1.15,2013-11-25 09:58:00,
2013-11-25 05:04:00,14.5,10.5,30.56,SE,146,0.0,0.0,84,0.00,,,0.00,Wunderground v.1.15,2013-11-25 10:04:00,
2013-11-25 05:09:00,14.5,10.8,30.56,SE,146,0.0,0.0,85,0.00,,,0.00,Wunderground v.1.15,2013-11-25 10:09:00,
2013-11-25 05:14:00,14.5,10.5,30.56,SE,146,0.0,0.0,84,0.00,,,0.00,Wunderground v.1.15,2013-11-25 10:14:00,
2013-11-25 05:19:00,14.5,10.8,30.56,SE,146,0.0,0.0,85,0.00,,,0.00,Wunderground v.1.15,2013-11-25 10:19:00,
2013-11-25 05:24:00,14.5,10.8,30.56,SE,146,0.0,0.0,85,0.00,,,0.00,Wunderground v.1.15,2013-11-25 10:24:00,
2013-11-25 05:29:00,14.4,10.2,30.56,SE,146,0.0,0.0,83,0.00,,,0.00,Wunderground v.1.15,2013-11-25 10:29:00,
2013-11-25 05:35:00,14.5,10.5,30.56,SE,146,0.0,0.0,84,0.00,,,0.00,Wunderground v.1.15,2013-11-25 10:35:00,
2013-11-25 05:40:00,14.5,10.8,30.56,SE,146,0.0,0.0,85,0.00,,,0.00,Wunderground v.1.15,2013-11-25 10:40:00,
2013-11-25 05:45:00,14.5,10.8,30.55,SE,146,0.0,0.0,85,0.00,,,0.00,Wunderground v.1.15,2013-11-25 10:45:00,
2013-11-25 05:51:00,14.6,10.6,30.55,SE,146,0.0,0.0,84,0.00,,,0.00,Wunderground v.1.15,2013-11-25 10:51:00,
2013-11-25 05:56:00,14.6,10.9,30.55,SE,146,0.0,0.0,85,0.00,,,0.00,Wunderground v.1.15,2013-11-25 10:56:00,
2013-11-25 06:02:00,14.6,10.6,30.54,SE,146,0.0,0.0,84,0.00,,,0.00,Wunderground v.1.15,2013-11-25 11:02:00,
2013-11-25 06:07:00,14.6,10.6,30.54,SE,146,0.0,0.0,84,0.00,,,0.00,Wunderground v.1.15,2013-11-25 11:07:00,
2013-11-25 06:12:00,14.7,10.7,30.54,SE,146,0.0,0.0,84,0.00,,,0.00,Wunderground v.1.15,2013-11-25 11:12:00,
2013-11-25 06:18:00,14.7,10.7,30.54,SE,146,0.0,0.0,84,0.00,,,0.00,Wunderground v.1.15,2013-11-25 11:18:00,
2013-11-25 06:23:00,14.8,10.8,30.54,South,185,0.0,0.0,84,0.00,,,0.00,Wunderground v.1.15,2013-11-25 11:23:00,
2013-11-25 06:29:00,14.9,10.9,30.54,South,186,0.0,0.0,84,0.00,,,0.00,Wunderground v.1.15,2013-11-25 11:29:00,
2013-11-25 06:34:00,14.9,10.9,30.53,South,185,0.0,0.0,84,0.00,,,0.00,Wunderground v.1.15,2013-11-25 11:34:00,
2013-11-25 06:39:00,15.0,10.8,30.53,South,185,0.0,0.0,83,0.00,,,0.00,Wunderground v.1.15,2013-11-25 11:39:00,
2013-11-25 06:44:00,15.0,10.8,30.53,South,186,0.0,0.0,83,0.00,,,0.00,Wunderground v.1.15,2013-11-25 11:44:00,
2013-11-25 06:50:00,15.0,10.8,30.53,South,186,0.0,0.0,83,0.00,,,0.00,Wunderground v.1.15,2013-11-25 11:50:00,
2013-11-25 06:55:00,15.2,11.2,30.53,South,186,0.0,0.0,84,0.00,,,0.00,Wunderground v.1.15,2013-11-25 11:55:00,
2013-11-25 07:00:00,15.2,11.2,30.54,South,186,0.0,0.0,84,0.00,,,0.00,Wunderground v.1.15,2013-11-25 12:00:00,
2013-11-25 07:06:00,15.2,11.0,30.53,South,186,0.0,0.0,83,0.00,,,0.00,Wunderground v.1.15,2013-11-25 12:06:00,
2013-11-25 07:11:00,15.2,11.0,30.54,South,186,0.0,0.0,83,0.00,,,0.00,Wunderground v.1.15,2013-11-25 12:11:00,
2013-11-25 07:16:00,15.3,11.1,30.54,South,186,0.0,0.0,83,0.00,,,0.00,Wunderground v.1.15,2013-11-25 12:16:00,
2013-11-25 07:21:00,15.3,11.3,30.54,South,186,0.0,0.0,84,0.00,,,0.00,Wunderground v.1.15,2013-11-25 12:21:00,
2013-11-25 07:26:00,15.3,11.3,30.54,South,186,0.0,0.0,84,0.00,,,0.00,Wunderground v.1.15,2013-11-25 12:26:00,
2013-11-25 07:32:00,15.4,11.4,30.54,South,186,0.0,0.0,84,0.00,,,0.00,Wunderground v.1.15,2013-11-25 12:32:00,
2013-11-25 07:37:00,15.4,11.7,30.54,South,185,0.0,0.0,85,0.00,,,0.00,Wunderground v.1.15,2013-11-25 12:37:00,
2013-11-25 07:42:00,15.5,11.8,30.54,South,186,0.0,0.0,85,0.00,,,0.00,Wunderground v.1.15,2013-11-25 12:42:00,
2013-11-25 07:48:00,15.5,11.8,30.54,South,186,0.0,0.0,85,0.00,,,0.00,Wunderground v.1.15,2013-11-25 12:48:00,
2013-11-25 07:53:00,15.6,11.9,30.54,South,186,0.0,0.0,85,0.00,,,0.00,Wunderground v.1.15,2013-11-25 12:53:00,
2013-11-25 07:58:00,15.7,12.0,30.53,South,186,0.0,0.0,85,0.00,,,0.00,Wunderground v.1.15,2013-11-25 12:58:00,
2013-11-25 08:03:00,15.8,12.1,30.53,South,186,0.0,0.0,85,0.00,,,0.00,Wunderground v.1.15,2013-11-25 13:03:00,
2013-11-25 08:09:00,16.0,11.5,30.53,South,186,0.0,0.0,82,0.00,,,0.00,Wunderground v.1.15,2013-11-25 13:09:00,
2013-11-25 08:14:00,16.2,11.4,30.53,South,185,0.0,0.0,81,0.00,,,0.00,Wunderground v.1.15,2013-11-25 13:14:00,
2013-11-25 08:19:00,16.7,11.6,30.53,SSE,157,0.0,0.0,80,0.00,,,0.00,Wunderground v.1.15,2013-11-25 13:19:00,
2013-11-25 08:24:00,17.1,11.7,30.53,SE,124,0.0,3.0,79,0.00,,,0.00,Wunderground v.1.15,2013-11-25 13:24:00,
2013-11-25 08:29:00,17.4,11.7,30.53,SE,124,0.0,3.0,78,0.00,,,0.00,Wunderground v.1.15,2013-11-25 13:29:00,
2013-11-25 08:34:00,17.6,11.6,30.54,SE,124,0.0,2.0,77,0.00,,,0.00,Wunderground v.1.15,2013-11-25 13:34:00,
2013-11-25 08:39:00,17.7,11.7,30.54,SE,124,0.0,2.0,77,0.00,,,0.00,Wunderground v.1.15,2013-11-25 13:39:00,
2013-11-25 08:45:00,17.9,11.9,30.54,SE,124,0.0,1.0,77,0.00,,,0.00,Wunderground v.1.15,2013-11-25 13:45:00,
2013-11-25 08:50:00,18.2,12.5,30.54,SE,124,0.0,0.0,78,0.00,,,0.00,Wunderground v.1.15,2013-11-25 13:50:00,
2013-11-25 08:56:00,18.7,12.4,30.53,SE,128,0.0,2.0,76,0.00,,,0.00,Wunderground v.1.15,2013-11-25 13:56:00,
2013-11-25 09:02:00,19.3,13.0,30.53,South,175,0.0,1.0,76,0.00,,,0.00,Wunderground v.1.15,2013-11-25 14:02:00,
2013-11-25 09:07:00,19.7,12.8,30.53,SE,132,1.0,2.0,74,0.00,,,0.00,Wunderground v.1.15,2013-11-25 14:07:00,
2013-11-25 09:12:00,20.2,12.9,30.53,SE,129,1.0,2.0,73,0.00,,,0.00,Wunderground v.1.15,2013-11-25 14:12:00,
2013-11-25 09:18:00,20.4,12.2,30.53,ESE,111,1.0,2.0,70,0.00,,,0.00,Wunderground v.1.15,2013-11-25 14:18:00,
2013-11-25 09:23:00,20.6,12.4,30.53,SE,126,1.0,2.0,70,0.00,,,0.00,Wunderground v.1.15,2013-11-25 14:23:00,
2013-11-25 09:28:00,20.9,13.0,30.53,South,185,1.0,2.0,71,0.00,,,0.00,Wunderground v.1.15,2013-11-25 14:28:00,
2013-11-25 09:33:00,21.2,12.6,30.52,SSW,194,1.0,2.0,69,0.00,,,0.00,Wunderground v.1.15,2013-11-25 14:33:00,
2013-11-25 09:39:00,21.6,12.7,30.52,SE,140,1.0,2.0,68,0.00,,,0.00,Wunderground v.1.15,2013-11-25 14:39:00,
2013-11-25 09:44:00,21.9,13.0,30.52,ESE,123,1.0,2.0,68,0.00,,,0.00,Wunderground v.1.15,2013-11-25 14:44:00,
2013-11-25 09:49:00,22.2,12.9,30.52,ENE,76,1.0,2.0,67,0.00,,,0.00,Wunderground v.1.15,2013-11-25 14:49:00,
2013-11-25 09:54:00,22.5,13.2,30.51,SE,126,1.0,3.0,67,0.00,,,0.00,Wunderground v.1.15,2013-11-25 14:54:00,
2013-11-25 10:00:00,22.9,13.2,30.51,ESE,117,1.0,1.0,66,0.00,,,0.00,Wunderground v.1.15,2013-11-25 15:00:00,
2013-11-25 10:06:00,23.3,13.3,30.51,ESE,108,1.0,3.0,65,0.00,,,0.00,Wunderground v.1.15,2013-11-25 15:06:00,
2013-11-25 10:11:00,23.5,13.1,30.51,SE,125,2.0,2.0,64,0.00,,,0.00,Wunderground v.1.15,2013-11-25 15:11:00,
2013-11-25 10:16:00,23.6,13.2,30.51,South,175,1.0,2.0,64,0.00,,,0.00,Wunderground v.1.15,2013-11-25 15:16:00,
2013-11-25 10:21:00,23.8,13.4,30.51,East,101,1.0,2.0,64,0.00,,,0.00,Wunderground v.1.15,2013-11-25 15:21:00,
2013-11-25 10:26:00,23.8,13.0,30.50,SSE,165,1.0,3.0,63,0.00,,,0.00,Wunderground v.1.15,2013-11-25 15:26:00,
2013-11-25 10:32:00,23.9,13.1,30.50,SE,141,1.0,1.0,63,0.00,,,0.00,Wunderground v.1.15,2013-11-25 15:32:00,
2013-11-25 10:37:00,24.1,13.3,30.50,SSE,168,1.0,2.0,63,0.00,,,0.00,Wunderground v.1.15,2013-11-25 15:37:00,
2013-11-25 10:42:00,24.4,13.6,30.49,SE,124,1.0,2.0,63,0.00,,,0.00,Wunderground v.1.15,2013-11-25 15:42:00,
2013-11-25 10:48:00,24.6,13.8,30.49,SE,139,1.0,2.0,63,0.00,,,0.00,Wunderground v.1.15,2013-11-25 15:48:00,
2013-11-25 10:53:00,24.8,13.6,30.49,South,180,1.0,2.0,62,0.00,,,0.00,Wunderground v.1.15,2013-11-25 15:53:00,
2013-11-25 10:58:00,25.2,14.4,30.49,ESE,115,1.0,2.0,63,0.00,,,0.00,Wunderground v.1.15,2013-11-25 15:58:00,
2013-11-25 11:03:00,25.8,14.9,30.48,East,96,2.0,4.0,63,0.00,,,0.00,Wunderground v.1.15,2013-11-25 16:03:00,
2013-11-25 11:09:00,26.6,15.3,30.48,SE,130,2.0,4.0,62,0.00,,,0.00,Wunderground v.1.15,2013-11-25 16:09:00,
2013-11-25 11:14:00,27.1,14.3,30.48,ESE,122,2.0,4.0,58,0.00,,,0.00,Wunderground v.1.15,2013-11-25 16:14:00,
2013-11-25 11:19:00,27.7,16.0,30.48,SSE,163,1.0,4.0,61,0.00,,,0.00,Wunderground v.1.15,2013-11-25 16:19:00,
2013-11-25 11:25:00,28.5,14.4,30.47,South,182,1.0,3.0,55,0.00,,,0.00,Wunderground v.1.15,2013-11-25 16:25:00,
2013-11-25 11:30:00,28.8,14.2,30.47,South,180,2.0,2.0,54,0.00,,,0.00,Wunderground v.1.15,2013-11-25 16:30:00,
2013-11-25 11:35:00,28.9,14.3,30.46,SE,131,2.0,6.0,54,0.00,,,0.00,Wunderground v.1.15,2013-11-25 16:35:00,
2013-11-25 11:41:00,29.3,14.7,30.45,South,181,2.0,2.0,54,0.00,,,0.00,Wunderground v.1.15,2013-11-25 16:41:00,
2013-11-25 11:46:00,29.3,13.8,30.45,ESE,115,1.0,2.0,52,0.00,,,0.00,Wunderground v.1.15,2013-11-25 16:46:00,
2013-11-25 11:51:00,29.3,14.3,30.44,South,175,1.0,1.0,53,0.00,,,0.00,Wunderground v.1.15,2013-11-25 16:51:00,
2013-11-25 11:57:00,29.3,13.8,30.44,SSW,211,1.0,3.0,52,0.00,,,0.00,Wunderground v.1.15,2013-11-25 16:57:00,
2013-11-25 12:02:00,29.3,13.8,30.43,SE,127,1.0,2.0,52,0.00,,,0.00,Wunderground v.1.15,2013-11-25 17:02:00,
2013-11-25 12:07:00,29.4,13.0,30.43,SE,129,1.0,3.0,50,0.00,,,0.00,Wunderground v.1.15,2013-11-25 17:07:00,
2013-11-25 12:12:00,29.3,13.4,30.42,SE,130,2.0,3.0,51,0.00,,,0.00,Wunderground v.1.15,2013-11-25 17:12:00,
2013-11-25 12:18:00,29.6,14.1,30.42,East,95,2.0,5.0,52,0.00,,,0.00,Wunderground v.1.15,2013-11-25 17:18:00,
2013-11-25 12:23:00,29.7,14.2,30.41,SSW,198,2.0,2.0,52,0.00,,,0.00,Wunderground v.1.15,2013-11-25 17:23:00,
2013-11-25 12:28:00,30.1,14.1,30.41,ESE,103,1.0,2.0,51,0.00,,,0.00,Wunderground v.1.15,2013-11-25 17:28:00,
2013-11-25 12:33:00,30.6,14.6,30.40,SSE,157,2.0,3.0,51,0.00,,,0.00,Wunderground v.1.15,2013-11-25 17:33:00,
2013-11-25 12:39:00,30.9,14.0,30.40,SE,132,2.0,3.0,49,0.00,,,0.00,Wunderground v.1.15,2013-11-25 17:39:00,
2013-11-25 12:44:00,31.2,14.2,30.40,South,180,1.0,3.0,49,0.00,,,0.00,Wunderground v.1.15,2013-11-25 17:44:00,
2013-11-25 12:49:00,31.6,14.6,30.39,ESE,105,1.0,3.0,49,0.00,,,0.00,Wunderground v.1.15,2013-11-25 17:49:00,
2013-11-25 12:55:00,31.9,14.4,30.39,ESE,109,1.0,2.0,48,0.00,,,0.00,Wunderground v.1.15,2013-11-25 17:55:00,
2013-11-25 13:00:00,32.2,14.7,30.38,SE,142,1.0,1.0,48,0.00,,,0.00,Wunderground v.1.15,2013-11-25 18:00:00,
2013-11-25 13:06:00,32.2,14.2,30.38,NE,51,1.0,1.0,47,0.00,,,0.00,Wunderground v.1.15,2013-11-25 18:06:00,
2013-11-25 13:11:00,32.2,13.7,30.36,SE,141,1.0,1.0,46,0.00,,,0.00,Wunderground v.1.15,2013-11-25 18:11:00,
2013-11-25 13:16:00,32.4,14.9,30.35,SSE,153,1.0,3.0,48,0.00,,,0.00,Wunderground v.1.15,2013-11-25 18:16:00,
2013-11-25 13:21:00,32.9,14.4,30.35,SE,145,1.0,2.0,46,0.00,,,0.00,Wunderground v.1.15,2013-11-25 18:21:00,
2013-11-25 13:27:00,33.3,13.7,30.36,SSE,163,1.0,2.0,44,0.00,,,0.00,Wunderground v.1.15,2013-11-25 18:27:00,
2013-11-25 13:32:00,33.5,13.9,30.35,SSE,159,1.0,2.0,44,0.00,,,0.00,Wunderground v.1.15,2013-11-25 18:32:00,
2013-11-25 13:37:00,33.4,13.3,30.35,ESE,113,1.0,7.0,43,0.00,,,0.00,Wunderground v.1.15,2013-11-25 18:37:00,
2013-11-25 13:43:00,33.4,12.7,30.35,SSE,162,2.0,4.0,42,0.00,,,0.00,Wunderground v.1.15,2013-11-25 18:43:00,
2013-11-25 13:48:00,33.5,13.4,30.35,SE,128,1.0,4.0,43,0.00,,,0.00,Wunderground v.1.15,2013-11-25 18:48:00,
2013-11-25 13:53:00,33.7,13.5,30.35,South,180,1.0,1.0,43,0.00,,,0.00,Wunderground v.1.15,2013-11-25 18:53:00,
2013-11-25 13:58:00,33.9,13.2,30.35,ENE,76,1.0,1.0,42,0.00,,,0.00,Wunderground v.1.15,2013-11-25 18:58:00,
2013-11-25 14:04:00,34.3,13.6,30.34,SE,144,1.0,2.0,42,0.00,,,0.00,Wunderground v.1.15,2013-11-25 19:04:00,
2013-11-25 14:09:00,34.5,13.7,30.34,SW,224,1.0,2.0,42,0.00,,,0.00,Wunderground v.1.15,2013-11-25 19:09:00,
2013-11-25 14:14:00,34.7,13.4,30.34,SSE,153,1.0,2.0,41,0.00,,,0.00,Wunderground v.1.15,2013-11-25 19:14:00,
2013-11-25 14:20:00,35.1,12.0,30.33,SSE,164,1.0,1.0,38,0.00,,,0.00,Wunderground v.1.15,2013-11-25 19:20:00,
2013-11-25 14:25:00,35.3,12.2,30.32,ESE,115,1.0,3.0,38,0.00,,,0.00,Wunderground v.1.15,2013-11-25 19:25:00,
2013-11-25 14:31:00,35.3,13.3,30.32,South,170,2.0,2.0,40,0.00,,,0.00,Wunderground v.1.15,2013-11-25 19:31:00,
2013-11-25 14:36:00,35.3,13.9,30.32,SSE,166,1.0,2.0,41,0.00,,,0.00,Wunderground v.1.15,2013-11-25 19:36:00,
2013-11-25 14:42:00,35.4,14.0,30.32,SE,142,1.0,2.0,41,0.00,,,0.00,Wunderground v.1.15,2013-11-25 19:42:00,
2013-11-25 14:47:00,35.6,13.6,30.31,SE,130,1.0,2.0,40,0.00,,,0.00,Wunderground v.1.15,2013-11-25 19:47:00,
2013-11-25 14:52:00,35.8,13.8,30.31,SE,127,1.0,1.0,40,0.00,,,0.00,Wunderground v.1.15,2013-11-25 19:52:00,
2013-11-25 14:57:00,36.0,11.6,30.31,SE,134,1.0,3.0,36,0.00,,,0.00,Wunderground v.1.15,2013-11-25 19:57:00,
2013-11-25 15:03:00,36.1,12.9,30.31,SSE,152,1.0,2.0,38,0.00,,,0.00,Wunderground v.1.15,2013-11-25 20:03:00,
2013-11-25 15:08:00,36.2,11.8,30.31,SE,142,1.0,2.0,36,0.00,,,0.00,Wunderground v.1.15,2013-11-25 20:08:00,
2013-11-25 15:13:00,36.2,11.1,30.31,SE,133,1.0,3.0,35,0.00,,,0.00,Wunderground v.1.15,2013-11-25 20:13:00,
2013-11-25 15:18:00,36.2,11.1,30.31,SE,130,1.0,4.0,35,0.00,,,0.00,Wunderground v.1.15,2013-11-25 20:18:00,
2013-11-25 15:24:00,36.2,11.1,30.31,SE,130,1.0,1.0,35,0.00,,,0.00,Wunderground v.1.15,2013-11-25 20:24:00,
2013-11-25 15:29:00,36.2,11.1,30.31,SE,140,1.0,2.0,35,0.00,,,0.00,Wunderground v.1.15,2013-11-25 20:29:00,
2013-11-25 15:34:00,36.2,12.4,30.31,SE,144,1.0,1.0,37,0.00,,,0.00,Wunderground v.1.15,2013-11-25 20:34:00,
2013-11-25 15:40:00,36.1,10.4,30.31,SE,135,0.0,0.0,34,0.00,,,0.00,Wunderground v.1.15,2013-11-25 20:40:00,
2013-11-25 15:45:00,36.1,11.0,30.31,SE,135,0.0,0.0,35,0.00,,,0.00,Wunderground v.1.15,2013-11-25 20:45:00,
2013-11-25 15:50:00,36.2,13.6,30.31,SE,135,0.0,0.0,39,0.00,,,0.00,Wunderground v.1.15,2013-11-25 20:50:00,
2013-11-25 15:55:00,36.2,13.0,30.31,SE,135,0.0,1.0,38,0.00,,,0.00,Wunderground v.1.15,2013-11-25 20:55:00,
2013-11-25 16:01:00,36.2,12.4,30.31,SE,135,0.0,0.0,37,0.00,,,0.00,Wunderground v.1.15,2013-11-25 21:01:00,
2013-11-25 16:06:00,36.1,17.8,30.31,SE,135,0.0,0.0,47,0.00,,,0.00,Wunderground v.1.15,2013-11-25 21:06:00,
2013-11-25 16:11:00,36.0,16.7,30.31,SE,135,0.0,0.0,45,0.00,,,0.00,Wunderground v.1.15,2013-11-25 21:11:00,
2013-11-25 16:17:00,35.8,15.5,30.30,SE,135,0.0,1.0,43,0.00,,,0.00,Wunderground v.1.15,2013-11-25 21:17:00,
2013-11-25 16:22:00,35.5,16.2,30.31,SE,135,0.0,0.0,45,0.00,,,0.00,Wunderground v.1.15,2013-11-25 21:22:00,
2013-11-25 16:27:00,35.3,15.5,30.31,South,187,0.0,1.0,44,0.00,,,0.00,Wunderground v.1.15,2013-11-25 21:27:00,
2013-11-25 16:33:00,35.1,14.8,30.31,South,187,0.0,1.0,43,0.00,,,0.00,Wunderground v.1.15,2013-11-25 21:33:00,
2013-11-25 16:38:00,35.0,14.7,30.31,South,169,0.0,1.0,43,0.00,,,0.00,Wunderground v.1.15,2013-11-25 21:38:00,
2013-11-25 16:43:00,34.8,14.5,30.31,South,169,0.0,0.0,43,0.00,,,0.00,Wunderground v.1.15,2013-11-25 21:43:00,
2013-11-25 16:48:00,34.7,13.4,30.31,ENE,63,0.0,1.0,41,0.00,,,0.00,Wunderground v.1.15,2013-11-25 21:48:00,
2013-11-25 16:53:00,34.6,14.9,30.31,ENE,63,0.0,0.0,44,0.00,,,0.00,Wunderground v.1.15,2013-11-25 21:53:00,
2013-11-25 16:59:00,34.5,14.3,30.31,ENE,63,0.0,1.0,43,0.00,,,0.00,Wunderground v.1.15,2013-11-25 21:59:00,
2013-11-25 17:04:00,34.5,16.8,30.31,ENE,71,0.0,0.0,48,0.00,,,0.00,Wunderground v.1.15,2013-11-25 22:04:00,
2013-11-25 17:09:00,34.4,13.6,30.31,ENE,71,0.0,0.0,42,0.00,,,0.00,Wunderground v.1.15,2013-11-25 22:09:00,
2013-11-25 17:15:00,34.2,12.9,30.31,ENE,71,0.0,0.0,41,0.00,,,0.00,Wunderground v.1.15,2013-11-25 22:15:00,
2013-11-25 17:20:00,34.2,14.0,30.31,ENE,71,0.0,0.0,43,0.00,,,0.00,Wunderground v.1.15,2013-11-25 22:20:00,
2013-11-25 17:25:00,34.1,14.4,30.31,ENE,71,0.0,0.0,44,0.00,,,0.00,Wunderground v.1.15,2013-11-25 22:25:00,
2013-11-25 17:30:00,33.9,13.7,30.32,ENE,71,0.0,0.0,43,0.00,,,0.00,Wunderground v.1.15,2013-11-25 22:30:00,
2013-11-25 17:36:00,33.9,15.3,30.32,South,183,0.0,0.0,46,0.00,,,0.00,Wunderground v.1.15,2013-11-25 22:36:00,
2013-11-25 17:42:00,33.9,17.2,30.32,South,183,0.0,0.0,50,0.00,,,0.00,Wunderground v.1.15,2013-11-25 22:42:00,
2013-11-25 17:47:00,33.8,14.2,30.32,SSE,148,0.0,1.0,44,0.00,,,0.00,Wunderground v.1.15,2013-11-25 22:47:00,
2013-11-25 17:52:00,33.8,15.2,30.32,SSE,148,0.0,0.0,46,0.00,,,0.00,Wunderground v.1.15,2013-11-25 22:52:00,
2013-11-25 17:58:00,33.9,15.3,30.33,ENE,59,0.0,1.0,46,0.00,,,0.00,Wunderground v.1.15,2013-11-25 22:58:00,
2013-11-25 18:03:00,34.1,15.5,30.32,ENE,61,0.0,1.0,46,0.00,,,0.00,Wunderground v.1.15,2013-11-25 23:03:00,
2013-11-25 18:08:00,34.3,15.1,30.32,South,177,1.0,3.0,45,0.00,,,0.00,Wunderground v.1.15,2013-11-25 23:08:00,
2013-11-25 18:13:00,34.3,18.0,30.31,South,191,0.0,1.0,51,0.00,,,0.00,Wunderground v.1.15,2013-11-25 23:13:00,
2013-11-25 18:19:00,34.2,16.5,30.31,South,191,0.0,1.0,48,0.00,,,0.00,Wunderground v.1.15,2013-11-25 23:19:00,
2013-11-25 18:25:00,34.1,16.4,30.31,SSE,157,0.0,0.0,48,0.00,,,0.00,Wunderground v.1.15,2013-11-25 23:25:00,
2013-11-25 18:30:00,34.0,18.2,30.31,SSE,157,0.0,0.0,52,0.00,,,0.00,Wunderground v.1.15,2013-11-25 23:30:00,
2013-11-25 18:35:00,33.9,15.3,30.31,SSE,157,0.0,0.0,46,0.00,,,0.00,Wunderground v.1.15,2013-11-25 23:35:00,
2013-11-25 18:40:00,34.0,16.8,30.31,SSE,156,0.0,0.0,49,0.00,,,0.00,Wunderground v.1.15,2013-11-25 23:40:00,
2013-11-25 18:46:00,34.1,16.9,30.31,SSE,156,0.0,0.0,49,0.00,,,0.00,Wunderground v.1.15,2013-11-25 23:46:00,
2013-11-25 18:51:00,34.1,16.9,30.31,SSE,156,0.0,0.0,49,0.00,,,0.00,Wunderground v.1.15,2013-11-25 23:51:00,
2013-11-25 18:57:00,34.2,16.5,30.31,SSE,156,0.0,1.0,48,0.00,,,0.00,Wunderground v.1.15,2013-11-25 23:57:00,
2013-11-25 19:02:00,34.3,18.0,30.32,SSE,156,0.0,0.0,51,0.00,,,0.00,Wunderground v.1.15,2013-11-26 00:02:00,
2013-11-25 19:08:00,34.3,16.6,30.31,SSE,156,0.0,0.0,48,0.00,,,0.00,Wunderground v.1.15,2013-11-26 00:08:00,
2013-11-25 19:13:00,34.4,16.7,30.31,SSE,159,0.0,0.0,48,0.00,,,0.00,Wunderground v.1.15,2013-11-26 00:13:00,
2013-11-25 19:19:00,34.6,16.4,30.31,WNW,295,0.0,0.0,47,0.00,,,0.00,Wunderground v.1.15,2013-11-26 00:19:00,
2013-11-25 19:24:00,34.7,16.5,30.31,SE,124,0.0,1.0,47,0.00,,,0.00,Wunderground v.1.15,2013-11-26 00:24:00,
2013-11-25 19:30:00,34.8,18.0,30.31,SE,124,0.0,1.0,50,0.00,,,0.00,Wunderground v.1.15,2013-11-26 00:30:00,
2013-11-25 19:36:00,34.7,18.4,30.30,SE,124,0.0,0.0,51,0.00,,,0.00,Wunderground v.1.15,2013-11-26 00:36:00,
2013-11-25 19:42:00,34.7,17.5,30.30,SE,140,0.0,0.0,49,0.00,,,0.00,Wunderground v.1.15,2013-11-26 00:42:00,
2013-11-25 19:47:00,34.7,17.9,30.30,SE,140,0.0,0.0,50,0.00,,,0.00,Wunderground v.1.15,2013-11-26 00:47:00,
2013-11-25 19:52:00,34.7,18.4,30.30,SE,140,0.0,0.0,51,0.00,,,0.00,Wunderground v.1.15,2013-11-26 00:52:00,
2013-11-25 19:58:00,34.7,17.5,30.30,NE,34,0.0,2.0,49,0.00,,,0.00,Wunderground v.1.15,2013-11-26 00:58:00,
2013-11-25 20:03:00,34.6,18.3,30.29,NE,34,0.0,0.0,51,0.00,,,0.00,Wunderground v.1.15,2013-11-26 01:03:00,
2013-11-25 20:08:00,34.6,17.8,30.29,NE,34,0.0,0.0,50,0.00,,,0.00,Wunderground v.1.15,2013-11-26 01:08:00,
2013-11-25 20:14:00,34.5,18.2,30.30,NE,34,0.0,0.0,51,0.00,,,0.00,Wunderground v.1.15,2013-11-26 01:14:00,
2013-11-25 20:19:00,34.5,18.7,30.30,NE,34,0.0,0.0,52,0.00,,,0.00,Wunderground v.1.15,2013-11-26 01:19:00,
2013-11-25 20:25:00,34.5,16.8,30.29,NE,34,0.0,0.0,48,0.00,,,0.00,Wunderground v.1.15,2013-11-26 01:25:00,
2013-11-25 20:30:00,34.4,18.1,30.29,NE,34,0.0,0.0,51,0.00,,,0.00,Wunderground v.1.15,2013-11-26 01:30:00,
2013-11-25 20:36:00,34.4,19.9,30.28,NE,34,0.0,0.0,55,0.00,,,0.00,Wunderground v.1.15,2013-11-26 01:36:00,
2013-11-25 20:41:00,34.3,18.9,30.28,NE,34,0.0,0.0,53,0.00,,,0.00,Wunderground v.1.15,2013-11-26 01:41:00,
2013-11-25 20:47:00,34.3,18.5,30.28,NE,34,0.0,0.0,52,0.00,,,0.00,Wunderground v.1.15,2013-11-26 01:47:00,
2013-11-25 20:52:00,34.3,18.0,30.28,NE,34,0.0,0.0,51,0.00,,,0.00,Wunderground v.1.15,2013-11-26 01:52:00,
2013-11-25 20:57:00,34.3,17.1,30.28,NE,34,0.0,0.0,49,0.00,,,0.00,Wunderground v.1.15,2013-11-26 01:57:00,
2013-11-25 21:02:00,34.3,19.4,30.28,NE,34,0.0,0.0,54,0.00,,,0.00,Wunderground v.1.15,2013-11-26 02:02:00,
2013-11-25 21:07:00,34.2,19.7,30.28,NE,34,0.0,0.0,55,0.00,,,0.00,Wunderground v.1.15,2013-11-26 02:07:00,
2013-11-25 21:13:00,34.3,18.9,30.28,NE,34,0.0,0.0,53,0.00,,,0.00,Wunderground v.1.15,2013-11-26 02:13:00,
2013-11-25 21:18:00,34.3,18.9,30.27,NE,34,0.0,0.0,53,0.00,,,0.00,Wunderground v.1.15,2013-11-26 02:18:00,
2013-11-25 21:23:00,34.3,18.0,30.28,NE,34,0.0,0.0,51,0.00,,,0.00,Wunderground v.1.15,2013-11-26 02:23:00,
2013-11-25 21:28:00,34.3,18.5,30.28,NE,34,0.0,0.0,52,0.00,,,0.00,Wunderground v.1.15,2013-11-26 02:28:00,
2013-11-25 21:34:00,34.4,18.6,30.27,NE,34,0.0,0.0,52,0.00,,,0.00,Wunderground v.1.15,2013-11-26 02:34:00,
2013-11-25 21:39:00,34.4,18.1,30.28,NE,34,0.0,0.0,51,0.00,,,0.00,Wunderground v.1.15,2013-11-26 02:39:00,
2013-11-25 21:44:00,34.5,17.3,30.28,NE,34,0.0,0.0,49,0.00,,,0.00,Wunderground v.1.15,2013-11-26 02:44:00,
2013-11-25 21:50:00,34.6,19.2,30.28,NE,34,0.0,0.0,53,0.00,,,0.00,Wunderground v.1.15,2013-11-26 02:50:00,
2013-11-25 21:55:00,34.7,18.4,30.28,NE,45,0.0,0.0,51,0.00,,,0.00,Wunderground v.1.15,2013-11-26 02:55:00,
2013-11-25 22:00:00,34.8,17.6,30.28,NE,45,0.0,0.0,49,0.00,,,0.00,Wunderground v.1.15,2013-11-26 03:00:00,
2013-11-25 22:06:00,35.0,17.3,30.29,NE,45,0.0,1.0,48,0.00,,,0.00,Wunderground v.1.15,2013-11-26 03:06:00,
2013-11-25 22:12:00,35.2,18.9,30.29,ESE,111,0.0,0.0,51,0.00,,,0.00,Wunderground v.1.15,2013-11-26 03:12:00,
2013-11-25 22:17:00,35.3,18.5,30.29,ESE,109,0.0,1.0,50,0.00,,,0.00,Wunderground v.1.15,2013-11-26 03:17:00,
2013-11-25 22:22:00,35.4,19.0,30.30,South,182,0.0,0.0,51,0.00,,,0.00,Wunderground v.1.15,2013-11-26 03:22:00,
2013-11-25 22:27:00,35.5,17.7,30.29,SE,135,0.0,2.0,48,0.00,,,0.00,Wunderground v.1.15,2013-11-26 03:27:00,
2013-11-25 22:33:00,35.6,18.3,30.30,SE,135,0.0,1.0,49,0.00,,,0.00,Wunderground v.1.15,2013-11-26 03:33:00,
2013-11-25 22:38:00,35.6,19.7,30.29,East,95,0.0,1.0,52,0.00,,,0.00,Wunderground v.1.15,2013-11-26 03:38:00,
2013-11-25 22:43:00,35.6,19.2,30.29,East,95,0.0,0.0,51,0.00,,,0.00,Wunderground v.1.15,2013-11-26 03:43:00,
2013-11-25 22:49:00,35.6,18.8,30.29,East,96,0.0,1.0,50,0.00,,,0.00,Wunderground v.1.15,2013-11-26 03:49:00,
2013-11-25 22:54:00,35.6,20.1,30.29,East,96,0.0,0.0,53,0.00,,,0.00,Wunderground v.1.15,2013-11-26 03:54:00,
2013-11-25 22:59:00,35.5,19.1,30.29,East,96,0.0,0.0,51,0.00,,,0.00,Wunderground v.1.15,2013-11-26 03:59:00,
2013-11-25 23:05:00,35.4,18.6,30.30,East,96,0.0,0.0,50,0.00,,,0.00,Wunderground v.1.15,2013-11-26 04:05:00,
2013-11-25 23:10:00,35.5,19.1,30.30,East,96,0.0,0.0,51,0.00,,,0.00,Wunderground v.1.15,2013-11-26 04:10:00,
2013-11-25 23:15:00,35.7,18.9,30.29,SSW,202,1.0,6.0,50,0.00,,,0.00,Wunderground v.1.15,2013-11-26 04:15:00,
2013-11-25 23:21:00,35.9,19.5,30.29,SSW,202,0.0,1.0,51,0.00,,,0.00,Wunderground v.1.15,2013-11-26 04:21:00,
2013-11-25 23:26:00,35.9,19.0,30.29,SSW,196,0.0,1.0,50,0.00,,,0.00,Wunderground v.1.15,2013-11-26 04:26:00,
2013-11-25 23:32:00,35.8,19.9,30.28,SSW,196,0.0,0.0,52,0.00,,,0.00,Wunderground v.1.15,2013-11-26 04:32:00,
2013-11-25 23:37:00,35.7,18.9,30.29,SSW,196,0.0,0.0,50,0.00,,,0.00,Wunderground v.1.15,2013-11-26 04:37:00,
2013-11-25 23:42:00,35.7,19.3,30.29,SSW,196,0.0,0.0,51,0.00,,,0.00,Wunderground v.1.15,2013-11-26 04:42:00,
2013-11-25 23:47:00,35.7,20.2,30.29,SSW,196,0.0,0.0,53,0.00,,,0.00,Wunderground v.1.15,2013-11-26 04:47:00,
2013-11-25 23:53:00,35.8,19.9,30.29,WNW,294,0.0,1.0,52,0.00,,,0.00,Wunderground v.1.15,2013-11-26 04:53:00,
2013-11-25 23:58:00,35.9,20.9,30.28,ENE,57,0.0,1.0,54,0.00,,,0.00,Wunderground v.1.15,2013-11-26 04:58:00,